Weather Roundup
Issued by NWS

Home | Current Version | Previous Version | Graphics & Text | Print | Product List | Glossary Off
Versions: 1 2 3 4 5 6 7 8 9 10 11 12 13 14 15 16 17 18 19 20 21 22 23 24 25 26 27 28 29 30 31 32 33 34 35 36 37 38 39 40 41 42 43 44 45 46 47 48 49 50

000
NZUS93 KARX 220910
HRRWXR

CURRENT HOURLY OBSERVATIONS ACROSS
MUCH OF THE UPPER MISSISSIPPI VALLEY
NATIONAL WEATHER SERVICE LA CROSSE WI
300 AM CST WED NOV 22 2017


...SOUTHEAST MINNESOTA...


CITY           SKY/WX    TMP DP  RH WIND       PRES   REMARKS
ROCHESTER      CLOUDY    13  10  88 N8        30.32R WCI   2
ROCHESTER/MAYO FAIR      17  11  78 NW7       30.34R WCI   7
WINONA           N/A     19  12  73 NW9       30.36R WCI   9
AUSTIN         CLOUDY    16  10  79 NW6       30.34R WCI   7
ALBERT LEA     CLOUDY    16  10  79 CALM      30.33S
DODGE CENTER   CLOUDY    14  10  85 N5        30.32S WCI   6
PRESTON          N/A     15  10  83 NW5       30.33R WCI   7
OWATONNA       CLOUDY    12   9  85 CALM      30.34R
FARIBAULT      CLOUDY    14  10  85 W3        30.35R
$$

...ELSEWHERE IN MINNESOTA...


CITY           SKY/WX    TMP DP  RH WIND       PRES   REMARKS
MINNEAPOLIS    CLOUDY    16  11  80 NW5       30.36S WCI   9
INTNL FALLS      N/A      3  -1  83 SW5       30.22F WCI  -6
DULUTH         CLOUDY    12   9  87 NW9       30.24S WCI   0
RED WING       CLOUDY    14   9  79 CALM      30.36R
REDWOOD FALLS  CLOUDY    12   6  77 W6        30.37R WCI   3
MANKATO        CLOUDY    14   9  80 NW7       30.37R WCI   4
WORTHINGTON    CLOUDY    10   5  80 W3        30.35S
FAIRMONT       CLOUDY    13   8  81 NW7       30.37R WCI   3
$$

...SOUTHWEST WISCONSIN...


CITY           SKY/WX    TMP DP  RH WIND       PRES   REMARKS
LA CROSSE      CLEAR     20  12  71 N10       30.35R WCI   9
PRAIRIE DU CHI CLEAR     20  12  69 NW5       30.34S WCI  14
BOSCOBEL       CLEAR     20  12  71 CALM      30.34R
LONE ROCK      CLEAR     18  12  77 W6        30.32R WCI  10
PLATTEVILLE    CLEAR     18  15  86 W6        30.31R WCI  10
FORT MC COY    CLEAR     18  12  77 NW6       30.34R WCI  10
CAMP DOUGLAS   CLEAR     15  10  80 NW6       30.31R WCI   6
MAUSTON-NEW LI SUNNY     19  12  74 NW5       30.30R WCI  12
VIROQUA        FAIR      18  14  84 NW6       30.28R WCI  10
WIS DELLS      CLEAR     19  11  69 NW5       30.29R WCI  13
$$

...ELSEWHERE IN WISCONSIN...


CITY           SKY/WX    TMP DP  RH WIND       PRES   REMARKS
MILWAUKEE      CLEAR     24  13  62 NW7       30.27R WCI  16
MADISON        CLEAR     20  12  71 NW5       30.28R WCI  13
GREEN BAY      CLOUDY    23  15  71 W7        30.26R WCI  15
EAU CLAIRE     CLOUDY    14   8  77 NW5       30.33R WCI   6
BLACK RVR FLS  FAIR      17   8  70 NW3       30.33R
MEDFORD        FLURRIES  17  10  73 N7        30.26R WCI   7
WAUSAU         CLOUDY    19  10  68 NW7       30.26R WCI  10
WIS RAPIDS     CLEAR     16   9  74 N6        30.30R WCI   7
MARSHFIELD     CLOUDY    18  11  74 NW9       30.26R WCI   7
RICE LAKE      CLOUDY    13   9  84 W3        30.33F
$$

...NORTHEAST IOWA...


CITY           SKY/WX    TMP DP  RH WIND       PRES   REMARKS
WATERLOO       CLOUDY    16  11  80 NW9       30.36S WCI   4
DUBUQUE        CLEAR     18  12  77 N9        30.31R WCI   7
DECORAH        CLOUDY    18  12  79 NW8       30.31S WCI   7
MASON CITY     CLOUDY    14   9  80 NW8       30.36R WCI   3
CHARLES CITY   CLOUDY    18  12  79 NW8       30.35R WCI   7
OELWEIN        CLOUDY    16  16 100 NW8       30.34R WCI   5
$$

...ELSEWHERE IN IOWA...


CITY           SKY/WX    TMP DP  RH WIND       PRES   REMARKS
DES MOINES     CLOUDY    20  11  68 NW8       30.40S WCI  10
IOWA CITY      CLOUDY    21  13  71 NW7       30.39R WCI  12
FORT DODGE     CLOUDY    16  10  77 CALM      30.37F
MARSHALLTOWN   CLOUDY    15  12  88 NW5       30.37R WCI   8
CEDAR RAPIDS   CLOUDY    16  11  80 NW8       30.34R WCI   5
$$

...NORTHERN ILLINOIS...


CITY           SKY/WX    TMP DP  RH WIND       PRES   REMARKS
CHICAGO-OHARE  PTCLDY    25  14  63 NW10      30.27R WCI  15
CHICAGO-MIDWAY PTCLDY    26  15  63 NW9       30.27R WCI  17
MOLINE         CLOUDY    22  14  71 NW6       30.35R WCI  14
ROCKFORD       PTCLDY    21  14  74 NW9       30.31R WCI  11
PEORIA         CLEAR     22  16  78 NW5       30.34R WCI  16
$$

NOTE: "FAIR" INDICATES FEW OR NO CLOUDS BELOW 12,000 FEET WITH NO
SIGNIFICANT WEATHER AND/OR OBSTRUCTIONS TO VISIBILITY. WIND
SPEEDS ARE IN MILES-PER-HOUR.




USA.gov is the U.S. government's official web portal to all federal, state and local government web resources and services.